Location: Newark
(35.1686°N, 108.2815°E)
Time: 05:01:41
(UTC+00:00)

Hubble Space Telescope - Pass Details

Date: 08 April 2020
Orbit: 536 x 540 km, 28.5° (Epoch: 30 May)

Event Time Altitude Azimuth Distance (km) Brightness Sun altitude
Rises 12:43:21 0° 245° (WSW) 2,665 4.9 -18.3°
Reaches altitude 10° 12:45:48 10° 233° (SW) 1,775 3.8 -18.7°
Enters shadow 12:49:13 29° 178° (S) 996 1.9 -19.4°
